This is the latest recevied weather packets stored in our database for station/object K3RUP-1. If no packets are shown the sender has not sent any weather packets the latest 10 day(s).
| Time | Temp. | Humidity | Pressure | Rain* | Wind** | Luminosity | Snow |
|---|---|---|---|---|---|---|---|
| 1788548839 | 32.22° C | 58% | 1011.9 hPa | 0 mm | - | 336 W/m² | - |
| 1788548534 | 32.78° C | 58% | 1011.8 hPa | 0 mm | - | 511 W/m² | - |
| 1788548231 | 32.22° C | 57% | 1011.8 hPa | 0 mm | - | 540 W/m² | - |
| 1788547925 | 32.22° C | 57% | 1012 hPa | 0 mm | - | 545 W/m² | - |
| 1788547624 | 32.22° C | 58% | 1012.1 hPa | 0 mm | - | 567 W/m² | - |
| 1788547320 | 32.22° C | 57% | 1012 hPa | 0 mm | - | 530 W/m² | - |
| 1788547015 | 32.78° C | 57% | 1012.1 hPa | 0 mm | - | 521 W/m² | - |
| 1788546709 | 32.22° C | 57% | 1012.2 hPa | 0 mm | - | 514 W/m² | - |
| 1788546405 | 32.22° C | 59% | 1012.2 hPa | 0 mm | - | 525 W/m² | - |
| 1788546100 | 32.22° C | 61% | 1012.3 hPa | 0 mm | - | 494 W/m² | - |
| 1788545795 | 32.22° C | 60% | 1012 hPa | 0 mm | - | 441 W/m² | - |
| 1788545490 | 31.67° C | 60% | 1012.3 hPa | 0 mm | - | 581 W/m² | - |
| 1788545185 | 31.67° C | 61% | 1012.4 hPa | 0 mm | - | 550 W/m² | - |
| 1788544881 | 32.22° C | 58% | 1012.1 hPa | 0 mm | - | 629 W/m² | - |
| 1788544580 | 32.22° C | 61% | 1012.1 hPa | 0 mm | - | 630 W/m² | - |
| 1788544278 | 31.67° C | 60% | 1012.2 hPa | 0 mm | - | 628 W/m² | - |
| 1788543973 | 31.67° C | 61% | 1012.3 hPa | 0 mm | - | 597 W/m² | - |
| 1788543670 | 31.11° C | 64% | 1012.3 hPa | 0 mm | - | 640 W/m² | - |
| 1788543370 | 31.11° C | 64% | 1012.2 hPa | 0 mm | - | 648 W/m² | - |
| 1788543065 | 31.11° C | 63% | 1012.4 hPa | 0 mm | - | 622 W/m² | - |
| 1788542761 | 31.11° C | 65% | 1012.5 hPa | 0 mm | - | 626 W/m² | - |
| 1788542461 | 31.11° C | 64% | 1012.6 hPa | 0 mm | - | 631 W/m² | - |
| 1788542155 | 30.56° C | 65% | 1012.5 hPa | 0 mm | - | 620 W/m² | - |
| 1788541851 | 30.56° C | 65% | 1012.4 hPa | 0 mm | - | 624 W/m² | - |
| 1788541546 | 30.56° C | 65% | 1012.8 hPa | 0 mm | - | 642 W/m² | - |
* Rain latest hour (hover to see other rain measurements)
** Current wind speed in m/s (hover to see current wind gust speed)